Wind_Speed
55 56 53 49 47 46 47 47 46 45 46 46 45 42 40 41 40 37 36 36 35 34 33 33 32 32 32 32 32 32 32 32 32 32 32 32 33 33 32 32 33 34 34 34
55 55 50 48 48 48 48 48 46 46 46 47 46 44 42 42 41 39 38 37 36 35 34 34 34 33 33 32 32 33 33 33 33 33 33 33 33 33 33 33 34 34 35 35
55 50 48 49 49 49 48 47 45 45 46 47 47 46 43 42 42 40 39 38 37 36 35 35 35 35 34 34 34 34 34 34 33 33 33 33 33 33 33 34 34 35 35 35
55 52 51 51 50 49 47 44 44 45 46 47 48 48 43 41 41 40 39 39 38 37 37 36 36 36 35 35 34 34 34 33 33 33 33 34 34 33 34 35 35 35 34 34
56 54 53 51 48 47 45 43 44 45 47 48 47 49 43 41 40 39 39 39 38 37 37 36 35 35 35 35 34 34 34 33 33 33 33 34 34 34 34 34 34 34 34 34
54 53 53 50 47 46 45 46 46 47 48 50 46 47 45 39 37 37 38 38 37 36 36 35 34 34 34 34 33 33 33 33 33 33 33 33 33 33 34 34 34 34 34 34
55 54 53 52 52 50 49 48 48 49 50 50 45 47 46 37 36 36 36 35 35 35 34 33 33 33 33 32 32 33 33 32 32 32 32 33 33 33 33 33 33 34 34 34
55 56 54 53 54 52 50 49 50 50 49 47 45 46 43 38 36 35 34 34 34 34 33 33 33 32 32 31 31 32 32 31 31 31 32 32 33 32 32 32 33 33 33 34
55 54 52 51 51 51 50 50 47 47 48 47 47 44 41 38 35 33 33 32 32 32 32 32 32 31 31 31 31 31 31 31 31 31 31 31 31 31 31 32 32 33 34 34
54 54 54 52 51 51 50 48 49 49 48 48 47 44 39 35 33 32 31 31 31 31 32 32 31 31 30 30 30 30 30 30 30 31 31 31 31 31 31 31 32 33 34 34
54 54 54 54 54 52 51 51 50 49 49 48 47 43 37 34 33 32 30 30 30 30 30 30 30 30 30 30 30 30 30 29 29 29 30 30 30 30 30 31 32 33 34 35
53 54 54 54 52 50 50 49 49 49 48 46 45 42 36 34 33 32 31 30 29 29 29 29 29 29 29 29 30 29 29 29 29 29 29 29 30 30 30 31 32 34 34 35
53 54 54 54 54 53 53 50 48 47 47 47 46 41 36 35 33 32 31 30 29 29 29 29 29 28 29 29 29 29 29 29 29 29 30 30 30 31 31 32 33 34 35 35
55 55 56 56 52 50 50 49 49 49 49 47 43 38 35 34 33 32 31 30 30 30 29 29 28 28 29 29 29 29 29 29 29 30 30 30 31 31 32 33 33 34 34 35
55 55 53 52 52 50 49 47 47 47 45 44 40 39 35 34 33 32 32 32 31 30 29 28 28 28 28 28 28 29 29 29 30 30 30 31 31 32 33 33 34 34 35 36
53 53 52 52 51 52 52 50 48 47 44 42 41 39 35 35 35 34 33 32 31 30 29 29 29 28 28 28 28 29 29 30 30 30 30 31 32 33 33 34 34 35 36 36
51 51 51 50 50 52 54 51 49 47 43 41 41 36 35 36 36 34 33 32 32 31 30 29 29 29 29 28 28 29 30 30 30 31 31 32 32 33 34 34 35 35 37 38
51 51 50 49 50 52 50 46 46 45 42 41 39 35 36 35 35 34 34 33 33 32 31 30 29 29 29 29 29 29 30 30 30 31 31 32 32 33 34 34 35 36 37 38
48 49 50 50 52 51 48 45 44 44 43 40 38 36 36 35 36 36 34 34 33 32 31 30 30 30 29 30 30 30 30 30 30 31 31 32 33 33 34 34 35 36 37 38
49 49 50 50 51 50 44 41 40 43 43 38 38 36 36 36 38 34 32 33 33 33 32 31 30 30 30 30 30 30 30 30 31 31 31 32 33 33 34 35 36 37 38 39
51 50 50 49 47 46 42 41 42 43 37 35 36 35 35 36 34 31 33 33 33 33 31 30 30 30 30 30 30 30 30 31 31 32 32 33 33 34 35 36 37 38 39 41
51 50 48 47 47 46 41 40 40 35 33 35 35 35 35 34 33 33 33 33 33 32 30 30 30 30 30 30 30 30 31 31 32 32 32 33 34 35 36 37 38 39 40 41
50 49 44 43 42 40 38 37 36 35 34 34 35 35 34 34 33 32 32 32 32 31 31 30 30 30 30 30 30 31 31 32 32 32 33 34 35 36 37 38 39 40 41 42
49 48 45 42 41 39 36 35 34 34 33 34 34 35 35 33 32 32 32 31 31 31 31 31 31 31 31 31 32 31 31 32 32 33 34 35 36 37 38 39 40 41 42 43
45 46 45 42 39 38 37 35 33 33 33 33 33 33 33 33 32 32 31 31 31 31 31 31 31 31 32 32 32 32 32 33 34 35 35 36 37 38 38 40 41 42 43 44
44 45 45 41 37 36 35 35 35 35 33 32 32 32 31 31 31 31 31 31 31 31 31 30 31 32 32 32 32 33 33 34 35 36 36 37 38 39 40 41 42 43 44 45
Wind_Direction
228 230 230 232 234 235 235 235 236 237 238 240 240 240 241 245 247 248 251 254 257 259 260 263 266 268 270 272 275 277 279 280 281 282 283 283 284 285 286 286 286 287 288 287
227 229 229 230 232 233 234 235 235 237 239 241 241 240 240 243 247 249 251 254 256 257 260 263 265 267 269 271 274 276 278 279 280 281 282 283 284 284 285 285 285 285 287 287
227 228 229 230 231 233 234 235 236 238 240 243 243 241 240 243 247 249 251 253 256 258 260 263 265 267 269 271 273 275 276 278 279 280 281 282 283 284 284 284 285 286 287 286
226 224 226 228 230 232 234 236 237 239 240 243 244 244 239 243 246 249 251 254 256 258 260 262 264 267 269 270 272 273 275 277 278 279 280 281 282 283 283 284 286 286 286 285
225 224 225 227 228 231 233 235 237 239 241 242 243 247 240 242 245 248 252 254 256 258 260 262 263 265 267 269 271 273 275 276 277 278 278 279 281 282 283 285 285 285 284 284
224 224 225 226 227 229 231 232 235 237 239 242 242 247 244 242 246 248 251 254 256 258 260 262 263 265 266 268 270 272 273 274 275 277 277 279 280 281 282 283 283 283 283 284
221 222 222 223 224 225 227 229 233 236 238 241 242 246 247 243 245 247 249 252 255 258 260 262 264 265 266 268 270 272 273 274 275 276 277 278 279 280 281 281 281 282 283 284
223 223 223 224 224 226 229 231 234 238 242 244 244 245 246 246 245 247 249 252 254 257 259 261 263 264 266 268 270 272 273 274 275 276 276 277 278 279 279 280 281 282 283 283
225 226 225 226 227 227 228 231 235 238 242 244 244 244 245 247 247 248 249 251 253 256 258 260 262 264 266 268 270 271 273 274 275 276 276 277 277 278 278 279 281 282 282 283
224 226 225 225 225 226 229 231 232 235 238 242 244 244 245 246 248 249 250 251 253 255 258 260 262 264 266 268 270 271 273 274 275 276 276 276 276 276 277 279 280 280 282 283
221 224 224 223 224 225 227 228 231 234 238 241 245 245 245 247 247 248 249 251 253 255 257 259 262 263 265 267 269 271 272 273 274 275 275 276 276 276 277 278 279 280 282 283
220 223 224 225 225 227 230 231 233 235 238 241 245 245 244 246 247 248 250 251 253 255 256 258 260 263 265 267 268 269 271 273 274 274 275 276 276 276 277 278 279 280 282 283
218 222 223 222 223 224 226 228 230 234 237 240 241 242 242 245 247 249 251 252 253 254 256 257 260 262 264 266 267 269 271 272 273 274 275 276 276 276 277 278 280 281 282 283
217 221 224 225 225 227 228 229 229 231 234 237 239 240 240 244 246 248 251 252 252 253 255 257 259 260 263 265 267 269 270 272 273 274 275 276 276 276 277 279 280 281 281 282
216 220 222 224 224 226 227 229 231 234 236 239 239 240 240 243 246 247 248 249 250 252 254 256 258 259 262 264 266 268 270 272 273 274 275 275 275 276 278 279 280 280 281 282
214 218 220 222 223 226 227 227 229 232 234 237 237 237 238 242 244 245 246 248 249 252 254 255 258 260 262 264 267 269 271 272 273 273 273 274 275 277 278 279 280 280 282 283
213 216 219 221 221 225 226 226 229 231 232 235 237 236 236 239 242 245 246 248 249 251 253 255 258 260 262 265 267 269 270 272 273 273 274 275 276 278 279 280 280 282 283 284
212 217 220 221 221 226 224 226 230 232 232 234 236 234 234 238 241 243 245 247 249 251 252 255 258 261 262 265 267 269 271 272 273 273 274 275 277 278 279 280 281 282 283 285
212 215 219 222 225 227 224 225 228 231 231 231 233 233 234 236 239 240 243 247 249 251 253 255 257 259 262 264 266 268 270 272 273 274 275 277 278 279 280 281 282 284 285 286
214 215 217 220 223 226 225 225 228 231 230 228 233 234 235 237 240 240 244 247 248 250 252 253 255 258 261 264 266 268 270 271 273 274 275 277 278 280 281 282 284 285 286 286
216 217 219 221 223 224 223 224 228 231 229 230 234 236 238 240 243 241 242 244 246 249 251 253 255 258 261 264 266 268 270 271 273 274 276 278 279 280 282 283 285 286 287 288
217 217 219 220 223 221 222 224 229 232 232 232 234 236 239 240 240 241 242 244 246 249 251 253 255 258 261 264 267 269 271 272 273 275 276 278 280 282 284 285 287 288 289 290
216 216 219 221 221 220 223 226 227 229 231 232 233 235 237 238 239 241 243 244 246 248 249 252 255 258 261 264 267 269 271 273 274 275 277 279 281 283 285 286 288 289 290 292
213 214 217 217 218 219 221 223 225 227 230 231 232 234 236 238 238 240 242 244 245 248 250 253 256 259 262 264 267 269 271 274 275 277 279 281 283 284 286 288 289 291 292 293
214 215 216 215 216 218 220 223 225 227 228 229 230 232 235 237 239 241 242 243 246 248 251 253 257 260 262 265 267 269 271 274 276 278 280 282 284 285 287 289 290 291 292 293
214 215 216 217 219 220 219 223 224 225 227 229 231 232 235 238 240 241 242 244 247 249 252 255 258 261 263 264 267 269 272 275 277 279 281 283 285 286 288 290 291 292 293 294
Height
5722 5729 5737 5747 5754 5760 5764 5768 5773 5778 5780 5783 5787 5793 5797 5798 5801 5805 5808 5809 5811 5813 5814 5815 5816 5816 5817 5817 5817 5816 5816 5815 5814 5813 5812 5811 5810 5808 5807 5805 5803 5801 5799 5797
5711 5720 5733 5738 5742 5747 5752 5757 5763 5768 5771 5773 5778 5783 5788 5790 5793 5797 5800 5802 5803 5805 5806 5807 5808 5808 5809 5809 5809 5809 5808 5807 5807 5806 5804 5803 5802 5801 5799 5798 5796 5793 5791 5790
5703 5717 5723 5726 5731 5736 5742 5749 5755 5759 5761 5763 5767 5773 5779 5783 5785 5788 5791 5793 5795 5797 5799 5799 5800 5800 5801 5801 5801 5801 5800 5800 5799 5798 5797 5795 5794 5793 5792 5790 5788 5786 5784 5782
5691 5702 5708 5714 5721 5727 5734 5742 5745 5748 5750 5754 5757 5761 5770 5774 5777 5780 5783 5785 5787 5789 5790 5791 5792 5792 5793 5793 5793 5793 5792 5792 5791 5790 5789 5787 5786 5785 5784 5782 5780 5778 5776 5774
5682 5692 5698 5704 5714 5720 5727 5732 5734 5737 5740 5743 5747 5749 5760 5765 5768 5772 5774 5776 5778 5780 5781 5782 5783 5784 5784 5784 5784 5784 5784 5783 5783 5782 5781 5780 5779 5777 5775 5774 5772 5770 5768 5766
5673 5681 5688 5697 5705 5710 5715 5719 5722 5725 5728 5731 5739 5740 5747 5757 5761 5764 5766 5767 5769 5771 5772 5773 5774 5775 5776 5776 5776 5776 5775 5775 5774 5773 5773 5772 5770 5769 5767 5766 5764 5762 5760 5759
5659 5668 5676 5684 5691 5697 5701 5708 5711 5713 5716 5722 5730 5731 5738 5749 5752 5754 5757 5759 5760 5762 5763 5764 5765 5766 5767 5767 5767 5767 5767 5767 5766 5765 5764 5763 5762 5761 5759 5758 5756 5754 5753 5751
5649 5657 5666 5673 5680 5687 5693 5698 5703 5707 5710 5716 5720 5722 5732 5738 5742 5745 5748 5750 5751 5753 5755 5756 5757 5758 5758 5758 5759 5759 5758 5758 5757 5757 5756 5755 5754 5752 5751 5750 5748 5746 5745 5743
5640 5650 5659 5666 5673 5678 5683 5687 5695 5699 5701 5705 5708 5715 5723 5728 5732 5736 5739 5741 5743 5745 5746 5747 5748 5749 5749 5750 5750 5750 5750 5750 5749 5748 5747 5746 5745 5744 5743 5742 5740 5738 5737 5735
5630 5638 5647 5655 5660 5665 5673 5679 5682 5686 5690 5693 5699 5706 5714 5720 5723 5727 5730 5732 5734 5736 5737 5738 5739 5740 5741 5741 5741 5741 5741 5741 5740 5739 5739 5738 5737 5736 5735 5733 5732 5730 5728 5726
5617 5625 5634 5640 5645 5655 5662 5666 5671 5677 5680 5685 5690 5700 5708 5712 5715 5718 5721 5723 5725 5727 5728 5730 5731 5731 5732 5733 5733 5733 5733 5732 5732 5731 5730 5730 5729 5727 5726 5725 5723 5722 5720 5718
5606 5613 5620 5629 5640 5646 5652 5657 5663 5668 5673 5678 5682 5693 5699 5703 5706 5709 5712 5714 5717 5718 5720 5721 5722 5723 5723 5724 5724 5724 5724 5724 5723 5723 5722 5721 5720 5719 5718 5717 5715 5713 5711 5709
5595 5600 5608 5615 5625 5631 5637 5645 5652 5659 5663 5667 5672 5685 5690 5693 5696 5700 5703 5706 5708 5710 5711 5713 5714 5714 5715 5715 5715 5716 5715 5715 5715 5714 5713 5713 5712 5711 5709 5708 5706 5704 5702 5700
5582 5588 5597 5605 5615 5624 5629 5636 5642 5646 5650 5657 5665 5675 5681 5684 5688 5691 5694 5697 5699 5701 5703 5704 5705 5706 5706 5707 5707 5707 5707 5706 5706 5705 5705 5704 5703 5702 5700 5699 5697 5695 5693 5691
5570 5578 5587 5597 5606 5613 5620 5627 5632 5637 5645 5651 5660 5665 5672 5676 5679 5682 5685 5687 5689 5692 5694 5696 5697 5697 5698 5698 5698 5698 5698 5698 5697 5697 5696 5695 5694 5693 5691 5690 5688 5686 5684 5682
5560 5569 5578 5586 5594 5601 5607 5614 5621 5628 5636 5642 5649 5655 5664 5666 5669 5672 5675 5678 5681 5683 5685 5687 5688 5689 5689 5690 5690 5690 5689 5689 5688 5688 5687 5686 5685 5683 5682 5681 5679 5677 5675 5673
5551 5560 5568 5576 5584 5588 5593 5605 5612 5619 5627 5633 5638 5649 5654 5656 5659 5662 5666 5668 5671 5674 5676 5678 5679 5680 5680 5681 5681 5681 5680 5680 5679 5679 5677 5677 5675 5674 5673 5671 5669 5668 5665 5663
5543 5551 5558 5566 5573 5575 5591 5600 5605 5612 5619 5625 5631 5638 5642 5646 5650 5653 5656 5659 5661 5664 5667 5669 5670 5671 5671 5672 5672 5672 5671 5671 5670 5669 5668 5667 5666 5665 5663 5662 5660 5658 5655 5653
5534 5542 5549 5556 5562 5569 5581 5591 5598 5603 5609 5616 5622 5628 5632 5635 5637 5642 5646 5649 5652 5655 5657 5659 5660 5661 5662 5663 5663 5663 5662 5662 5661 5660 5659 5658 5657 5655 5654 5652 5650 5648 5645 5643
5526 5533 5541 5547 5553 5561 5577 5585 5589 5593 5598 5608 5612 5618 5622 5624 5627 5635 5638 5640 5643 5645 5647 5649 5651 5652 5653 5654 5654 5654 5653 5653 5652 5651 5650 5649 5647 5646 5644 5642 5640 5638 5635 5632
5516 5522 5530 5538 5544 5555 5568 5574 5577 5583 5595 5602 5604 5608 5612 5615 5621 5627 5627 5630 5632 5635 5638 5640 5641 5643 5644 5644 5644 5644 5644 5644 5643 5642 5640 5639 5638 5636 5634 5632 5630 5627 5624 5621
5508 5515 5523 5530 5538 5551 5560 5565 5571 5579 5587 5591 5595 5598 5603 5608 5612 5615 5618 5620 5623 5626 5629 5630 5632 5634 5634 5635 5635 5635 5635 5634 5633 5632 5631 5629 5628 5626 5624 5622 5619 5616 5613 5610
5500 5510 5518 5526 5537 5546 5551 5558 5564 5569 5575 5580 5584 5590 5594 5598 5602 5605 5609 5612 5614 5617 5619 5621 5623 5624 5625 5625 5625 5625 5625 5624 5623 5622 5621 5619 5618 5616 5613 5611 5608 5605 5602 5599
5492 5502 5509 5518 5528 5536 5542 5548 5554 5560 5566 5570 5575 5581 5585 5589 5592 5596 5599 5602 5605 5608 5610 5612 5613 5614 5615 5615 5616 5615 5615 5614 5613 5612 5611 5609 5607 5605 5603 5600 5597 5594 5591 5587
5485 5494 5502 5511 5520 5527 5533 5540 5546 5552 5557 5562 5567 5572 5576 5580 5584 5587 5590 5593 5596 5598 5601 5602 5604 5605 5605 5605 5605 5605 5605 5604 5603 5602 5600 5599 5596 5594 5592 5589 5586 5582 5579 5574
5479 5487 5496 5506 5515 5520 5526 5532 5538 5543 5549 5554 5559 5564 5568 5571 5575 5578 5581 5584 5587 5589 5591 5593 5594 5595 5595 5595 5595 5595 5595 5594 5593 5592 5590 5588 5586 5583 5580 5577 5574 5570 5566 5562